STARLINK-1451 (45668 NORAD) Tracking and Keplerian Element Data

This shows tracking and keplerian element data for the satellite.

Feedback or suggestion? Click here.




ElementValue
Catalog45668
NameSTARLINK-1451
Epoch Orbit1014
Epoch Day215.91667824
Epoch Year2020
RAAN245.9514
Inclination53.0002
Eccentricity0.0001588
Argument of Perigee65.1818
Mean Anonmoly19.9829
Mean Motion15.05561351
Decay Rate0.00032824
L11 45668U 20035M 20215.91667824 .00032824 00000-0 22626-2 0 9991
L22 45668 53.0002 245.9514 0001588 65.1818 19.9829 15.05561351 10148

Live tracking and technical data element details for STARLINK-1451 (NORAD 45668). STARLINK-1451 can be tracked NOW for your location showing map with azimuth and elevation plus other details from your city location.

Track the satellite on the map from your city or location and see movement details for azimuth, elevation, latitude, longitude, range, height, and movement on the map or in text.







IsCatalogInMostPopularTable: catalog: 45668, numindb: 10
Update: records affected: 1



GetName: 45668 STARLINK-1451

Hit Count: updated at: Mon, 03 Aug 2020 18:12:57 GMT